Overview Statistics Trail Chart Weather Telemetry Raw packets
 

This is the latest recevied weather packets stored in our database for station/object N3FKR. If no packets are shown the sender has not sent any weather packets the latest 10 day(s).

<< 1 2 3 4 5 >>
Time Temp. Humidity Pressure Rain* Wind** Luminosity Snow
1788569918 25.56° C 79% 1014.1 hPa 0 mm - 0 W/m² -
1788569613 25.56° C 79% 1014.2 hPa 0 mm - 0 W/m² -
1788569308 25.56° C 79% 1014.2 hPa 0 mm - 0 W/m² -
1788569002 25.56° C 79% 1014.2 hPa 0 mm - 0 W/m² -
1788568698 25.56° C 79% 1014.1 hPa 0 mm - 0 W/m² -
1788568394 25.56° C 79% 1014.2 hPa 0 mm - 0 W/m² -
1788568089 25.56° C 79% 1014.2 hPa 0 mm - 0 W/m² -
1788567789 25.56° C 79% 1013.9 hPa 0 mm - 0 W/m² -
1788567484 25.56° C 79% 1013.9 hPa 0 mm - 0 W/m² -
1788567183 25.56° C 79% 1014 hPa 0 mm - 0 W/m² -
1788566879 25.56° C 79% 1013.9 hPa 0 mm - 0 W/m² -
1788566574 25.56° C 78% 1013.9 hPa 0 mm - 0 W/m² -
1788566270 25.56° C 77% 1013.6 hPa 0 mm - 0 W/m² -
1788565970 25.56° C 77% 1013.7 hPa 0 mm - 0 W/m² -
1788565675 26.11° C 76% 1013.8 hPa 0 mm - 0 W/m² -
1788565360 26.11° C 76% 1013.8 hPa 0 mm - 0 W/m² -
1788565056 26.11° C 75% 1013.9 hPa 0 mm - 1 W/m² -
1788564752 26.67° C 74% 1013.8 hPa 0 mm - 1 W/m² -
1788564448 26.67° C 74% 1013.8 hPa 0 mm - 2 W/m² -
1788564144 26.67° C 74% 1013.7 hPa 0 mm - 4 W/m² -
1788563840 26.67° C 73% 1013.7 hPa 0 mm - 7 W/m² -
1788563535 26.67° C 73% 1013.7 hPa 0 mm - 11 W/m² -
1788563234 27.22° C 73% 1013.8 hPa 0 mm - 16 W/m² -
1788562929 27.22° C 73% 1013.8 hPa 0 mm - 19 W/m² -
1788562628 27.22° C 73% 1013.8 hPa 0 mm - 21 W/m² -

* Rain latest hour (hover to see other rain measurements)
** Current wind speed in m/s (hover to see current wind gust speed)